Погода в Красном

Россия / Удмуртская Республика     56°44′00″N   52°35′11″E
темп.,
°C
ветер,
м/с
пор.,
м/с
влажн.,
%
обл.,
%
осадки,
мм/ч
давл.,
гПа
погр.,
м
14 апреля, ср
ср1401:00+8ююз229475 0.0 103233
04:00+7ююз229454 0.0 103225
07:00+8ююз24915 0.0 1031101
10:00+14ююз24665 0.0 1031384
13:00+17ю345260 0.0 1029915
16:00+18ю354850 0.0 10281039
19:00+14ююв22725 0.0 102624
22:00+11ю22855 0.0 102637
15 апреля, чт
чт1501:00+9ю228825 0.0 102517
04:00+8ю22905 0.0 102425
07:00+9ю26875 0.0 1023166
10:00+14юз46655 0.0 1022620
13:00+17юз46500 0.0 10201436
16:00+18юз45441 0.0 10191714
19:00+14зюз236499 0.0 101844
22:00+11зюз227320 0.0 101821
16 апреля, пт
пт1601:00+10ссв4992100 0.1 1019458
04:00+6св51185100 0.5 1022565
07:00+5св5107576 0.0 1024671
10:00+8св575067 0.0 1024855
13:00+10св56345 0.0 10251212
16:00+11св45325 0.0 10251435
19:00+7ссв36485 0.0 1025150
22:00+3ссв27629 0.0 1027124
17 апреля, сб
сб1701:00+2ссв256651 0.0 102796
04:000с227054 0.0 102722
07:00+2ссз25635 0.0 1027146
10:00+7с34410 0.0 10271235
13:00+10ссз464187 0.0 10261950
16:00+10ссз574391 0.0 10261879
19:00+6ссз48585 0.0 1026558
22:00+3ссз310775 0.0 1027358
18 апреля, вс
вс1801:00+1сз310835 0.0 1027340
04:000сз411865 0.0 1027419
07:00+1ссз411775 0.0 1028628
10:00+5ссз59495 0.0 10281238
13:00+7с694197 0.0 10291817
16:00+5св573399 0.1 10312273
19:00+5с374614 0.0 1032375
22:000св26575 0.0 1034126